Theta_e
309 310 312 316 320 325 329 331 332 332 333 333 334 335 336 336 336 336 336 336 336 336 335 335 335 336 336 336 337 337 337 338 338 338 338 338 337 336 336 336 335 334
309 309 311 313 316 319 324 328 331 332 332 332 333 334 335 335 336 336 336 336 336 336 335 335 335 335 335 336 336 337 337 337 337 338 338 338 338 337 337 336 336 335
308 309 310 311 313 316 319 323 327 331 332 333 333 333 334 335 335 336 336 336 336 336 336 335 335 335 335 335 336 337 337 337 337 337 338 338 338 337 337 336 336 336
308 309 309 310 312 315 316 318 322 327 330 333 333 333 334 334 334 336 336 337 337 337 336 335 335 334 335 336 336 336 336 337 337 337 338 338 338 338 337 337 337 336
307 308 309 310 312 313 313 315 317 321 325 330 332 333 333 334 334 335 336 337 337 337 336 335 335 335 335 336 336 336 336 336 336 337 338 337 337 337 337 337 337 337
307 308 308 309 310 310 312 313 315 317 321 326 329 331 333 333 334 334 335 336 336 337 336 336 336 336 335 335 336 336 336 336 336 336 337 337 336 336 336 337 337 337
307 307 307 308 309 310 311 312 314 316 319 324 327 330 332 333 333 334 334 335 336 336 337 337 336 336 336 335 334 335 336 336 336 336 336 336 336 335 336 336 337 337
306 306 307 308 309 310 311 312 314 315 318 322 327 329 331 332 333 333 334 335 335 336 337 337 337 336 336 336 333 333 335 335 335 335 335 335 335 335 335 336 337 337
306 306 307 308 308 309 310 311 314 315 317 321 326 329 330 331 332 333 333 334 335 336 336 336 337 337 337 336 334 334 335 335 335 335 335 335 335 335 336 336 337 337
305 306 306 307 307 308 309 311 313 315 316 319 323 327 329 330 332 333 333 334 334 335 336 335 336 337 337 337 336 335 335 335 335 335 335 335 335 335 336 336 336 337
305 305 305 306 307 308 310 312 313 314 316 318 322 326 329 330 331 332 332 333 334 335 335 335 336 336 337 337 336 336 336 335 335 335 335 335 335 335 335 335 336 336
305 305 305 306 307 308 310 312 313 314 316 318 322 327 329 329 330 332 332 333 334 334 335 335 336 336 336 336 336 336 336 335 335 335 335 334 335 335 335 335 336 336
305 306 306 307 308 309 311 313 314 315 317 320 323 327 328 329 329 330 331 332 333 334 335 335 336 336 336 336 336 336 336 335 335 335 335 335 335 335 335 335 335 336
306 307 307 308 309 311 312 313 314 315 317 320 325 327 327 328 329 329 330 331 332 333 334 334 335 336 336 336 336 336 335 335 335 335 335 335 335 335 335 335 335 336
306 307 308 308 310 310 310 311 312 312 314 318 323 326 326 326 327 328 329 330 331 332 333 334 335 335 335 335 335 335 335 335 335 335 335 335 335 335 335 335 335 336
305 306 306 307 308 309 309 309 310 311 312 315 319 323 325 325 325 327 329 331 331 331 331 332 333 334 335 335 335 335 335 335 335 335 335 335 335 335 335 335 335 336
303 304 304 305 306 307 307 308 309 309 310 310 313 316 319 322 324 325 327 329 331 332 332 332 333 333 334 334 335 335 335 335 335 335 335 335 335 336 335 335 335 335
302 302 303 303 304 305 306 307 307 307 308 308 309 310 312 315 319 324 326 326 328 329 331 332 333 333 333 333 334 335 335 335 335 335 335 335 335 335 335 335 335 335
301 301 302 302 303 304 304 305 305 305 305 305 306 307 308 310 314 319 324 326 327 327 328 330 331 333 333 333 334 334 335 335 336 336 336 335 335 335 335 335 335 335
301 301 302 302 302 303 303 303 304 304 304 304 304 305 307 309 310 312 316 322 326 327 328 329 330 332 332 333 333 334 334 335 335 336 336 335 336 336 335 335 335 335
301 301 302 302 302 302 302 302 302 302 302 302 303 304 305 307 307 308 310 314 320 324 326 327 329 330 331 331 332 332 334 334 334 335 335 335 336 336 335 336 335 335
301 301 301 301 301 301 301 301 301 301 301 301 302 303 304 304 305 306 307 309 313 318 324 326 326 328 329 330 330 330 331 333 333 333 334 334 335 335 335 335 335 335
301 301 301 300 300 300 300 300 300 300 300 301 302 302 302 303 303 304 306 307 309 314 320 325 325 326 328 330 331 331 330 331 332 331 331 332 333 334 335 335 335 335
301 300 299 299 299 299 299 299 300 300 300 301 301 301 302 302 303 304 305 306 307 310 315 321 324 325 326 328 330 331 331 331 330 328 329 331 332 333 333 334 334 335
299 299 298 298 298 299 299 299 299 300 301 301 301 301 302 303 303 304 305 306 307 309 311 316 321 324 325 326 328 330 331 332 329 328 328 330 331 331 331 331 332 334
298 298 298 298 298 298 299 299 300 300 300 301 301 302 302 303 303 304 305 306 308 310 311 314 319 323 325 326 327 328 330 331 328 327 328 330 330 330 330 330 331 333
Wind_Speed
30 29 27 26 26 26 27 28 28 28 29 29 29 31 32 33 36 37 38 39 39 39 41 42 41 41 41 40 39 38 38 37 37 37 37 38 39 38 38 38 37 36
30 29 27 26 26 27 26 27 28 30 31 31 30 31 31 32 34 35 36 38 39 39 40 42 42 41 40 39 38 38 38 37 37 36 36 38 38 38 38 38 37 37
30 28 27 28 28 27 26 26 27 29 31 31 31 31 31 32 33 34 35 36 38 38 39 41 41 40 38 38 38 38 37 36 36 37 37 37 38 37 37 36 36 37
30 29 28 28 27 26 26 26 27 27 28 30 31 31 31 31 32 33 34 36 37 38 38 39 40 39 38 37 37 38 38 39 38 37 36 36 36 36 36 35 36 37
29 29 27 26 26 27 28 27 27 27 27 28 30 31 32 32 32 33 34 35 36 37 37 37 38 39 38 37 37 39 41 41 40 36 34 35 35 35 36 36 36 37
28 28 27 27 28 29 29 29 28 28 27 28 29 31 33 32 32 33 33 34 35 36 37 37 37 37 37 37 37 40 42 42 40 37 35 37 38 38 37 37 37 38
27 28 29 29 29 29 29 31 31 29 28 27 29 31 32 32 32 32 33 34 35 36 36 37 38 38 38 38 37 38 40 40 40 38 36 38 38 38 39 39 38 38
28 30 29 28 27 28 29 31 32 31 29 27 28 30 31 32 32 32 32 33 35 36 37 36 37 37 38 39 38 39 39 39 39 38 37 38 37 37 39 39 38 38
29 29 28 27 27 29 30 31 32 32 30 27 28 29 30 31 32 32 32 33 34 37 38 37 36 37 38 39 40 40 39 39 40 39 38 39 39 40 40 38 36 37
28 28 28 28 28 29 30 31 33 34 31 29 28 29 29 30 31 32 32 33 34 36 38 38 37 36 37 38 40 40 40 41 41 42 42 42 43 44 42 38 37 38
27 28 29 29 29 29 30 32 34 34 33 31 30 29 28 28 30 31 31 32 34 36 37 38 37 37 38 39 40 40 41 43 43 43 43 43 44 45 42 39 38 39
28 28 28 29 29 29 30 33 35 35 34 32 30 28 27 27 28 29 30 32 34 35 36 37 38 38 39 39 40 41 42 43 43 43 43 43 44 43 41 40 39 39
28 28 29 29 28 28 29 31 32 33 33 32 30 27 26 27 27 27 29 31 32 34 35 36 37 38 40 40 41 42 42 42 42 42 42 43 43 43 41 40 40 40
28 28 26 25 24 24 25 26 27 28 30 29 27 25 24 25 25 27 28 29 30 32 34 35 36 37 39 40 40 41 41 41 41 41 41 42 43 42 41 39 39 40
25 23 22 22 22 22 22 24 25 28 28 26 24 24 23 23 24 26 27 28 29 30 32 33 35 36 37 37 38 39 39 40 40 40 40 40 41 40 40 39 38 37
21 20 20 22 23 22 23 24 26 28 28 26 23 22 23 23 24 24 26 27 27 29 30 31 33 35 37 38 38 38 38 38 38 39 39 39 39 38 38 39 38 36
21 21 21 22 22 23 23 24 25 27 27 26 25 23 23 23 24 24 25 26 26 27 29 30 31 33 36 38 39 39 40 38 37 37 38 38 38 38 37 37 37 37
23 22 23 22 22 23 23 24 25 26 27 28 28 27 26 25 25 24 25 25 26 26 28 30 30 32 36 38 39 40 42 41 38 36 36 37 37 37 38 36 35 36
25 24 24 23 23 23 24 25 26 26 28 29 29 29 29 27 25 25 24 25 25 26 29 30 29 30 33 36 40 43 44 43 40 37 37 37 37 37 37 37 36 36
25 24 24 24 24 25 25 26 27 27 28 29 30 29 29 27 27 27 25 24 25 26 27 28 28 28 29 32 38 43 45 46 43 40 39 39 39 39 39 38 38 37
24 24 23 23 24 25 25 26 27 28 28 29 30 29 27 27 28 28 27 25 26 26 26 26 26 27 27 28 31 36 41 46 46 43 42 41 40 40 40 40 40 38
23 23 23 23 23 24 25 26 27 28 29 29 29 29 28 28 29 29 28 27 27 26 26 27 27 26 26 27 29 30 34 41 44 43 41 41 40 38 38 39 39 39
22 22 22 23 23 23 24 24 25 27 28 27 27 29 30 29 30 31 30 29 28 27 26 27 28 27 26 27 29 30 31 36 41 38 31 31 34 36 37 37 37 38
21 21 22 22 22 23 23 23 23 24 24 24 25 27 29 29 30 31 31 30 28 27 27 28 29 29 27 26 28 30 30 34 39 35 29 29 32 32 31 32 33 36
20 20 21 21 22 23 23 22 22 21 21 23 24 26 28 29 29 29 31 31 29 29 29 28 29 30 28 28 30 31 31 33 34 30 28 31 31 28 28 30 32 34
18 19 20 22 24 24 23 22 22 22 22 24 26 26 26 26 27 27 29 30 29 28 28 27 27 29 29 29 29 29 30 33 32 27 25 26 26 26 27 27 29 31
Wind_Direction
312 312 313 313 310 302 289 276 266 259 256 254 253 253 252 250 247 245 242 240 238 236 236 234 232 229 227 226 225 225 225 225 225 226 226 227 230 232 233 234 235 236
310 309 310 311 311 309 301 289 276 266 260 258 256 255 255 253 249 244 242 241 239 236 235 234 232 229 226 225 225 224 224 224 225 225 225 227 229 231 233 234 234 235
309 308 307 308 310 309 307 302 290 275 265 260 258 257 256 255 252 247 242 241 240 237 234 232 231 229 226 224 224 224 224 224 224 225 225 227 228 230 232 233 234 235
307 307 306 307 307 307 307 307 301 290 274 264 260 259 257 256 254 251 246 242 240 237 234 232 230 228 225 223 221 222 223 224 225 224 224 226 227 229 232 233 234 235
304 305 306 305 304 304 306 305 303 299 288 275 268 263 259 257 255 253 249 245 242 239 237 235 232 228 225 222 220 221 223 224 225 223 222 224 226 227 232 234 234 235
303 304 305 304 302 303 304 304 302 301 295 285 275 267 261 257 255 253 251 248 244 241 239 236 233 229 224 222 220 220 222 223 224 221 221 225 226 226 227 230 233 234
304 305 305 304 302 302 302 302 302 301 299 291 280 270 263 258 256 255 253 250 245 242 240 236 233 229 225 222 221 222 222 223 225 223 222 225 228 227 224 225 229 232
304 304 305 303 302 302 300 298 300 302 303 296 283 274 268 261 257 255 254 251 246 242 240 237 233 230 227 225 224 225 224 224 226 226 225 226 227 229 227 225 226 229
303 302 303 303 302 300 296 295 298 302 304 299 287 278 272 266 260 256 254 251 246 243 241 239 235 232 230 226 225 226 224 224 226 226 226 227 227 229 229 227 225 227
302 300 300 301 301 298 294 294 297 301 303 300 291 281 274 269 263 258 254 250 246 243 242 240 236 233 231 229 227 226 225 225 227 227 226 226 226 228 229 227 226 227
302 299 298 298 298 297 296 296 298 301 302 300 293 282 275 271 266 261 256 251 246 242 241 240 237 234 232 230 228 227 226 227 227 227 227 225 226 227 228 227 226 228
302 301 298 297 296 296 298 300 300 300 301 299 292 283 278 274 269 264 258 252 246 241 240 239 238 235 232 231 230 228 226 227 227 227 227 226 226 227 228 228 227 229
304 304 301 299 298 299 303 306 305 303 302 298 289 282 279 278 274 268 262 255 248 243 241 240 239 236 233 231 230 228 227 226 226 226 226 226 227 227 228 228 229 230
308 310 309 307 306 308 313 315 316 317 314 305 292 283 282 283 280 275 268 261 253 247 244 243 241 238 235 232 230 229 228 227 227 226 225 226 227 228 228 228 230 231
313 318 320 319 317 315 319 323 326 327 326 320 305 292 290 291 287 281 273 265 258 252 248 245 243 241 239 236 232 229 229 229 228 227 226 226 226 227 228 229 230 231
317 322 323 322 320 320 322 326 329 328 329 332 327 313 304 300 295 287 278 268 260 256 252 247 244 243 242 240 237 233 232 231 230 229 228 227 226 226 227 228 229 231
319 322 324 322 322 323 324 325 328 328 328 332 335 331 322 314 305 294 284 275 267 260 256 251 247 246 246 244 241 237 235 233 231 230 229 228 227 226 227 228 229 230
325 324 324 323 323 323 323 323 325 326 328 329 331 331 330 326 317 302 290 282 276 269 263 258 253 251 249 247 244 241 238 235 232 230 229 228 228 227 228 228 229 231
327 325 324 324 324 324 322 322 323 324 326 327 327 326 326 326 322 314 303 291 281 273 268 265 261 257 252 248 245 243 240 237 234 229 227 228 228 228 229 227 227 228
328 325 324 323 325 325 322 321 321 321 322 323 323 323 322 321 320 319 315 305 292 282 273 268 265 263 260 254 248 245 241 238 235 231 228 227 227 227 228 227 226 225
329 326 324 322 323 324 322 320 318 318 319 320 319 318 317 315 314 315 315 312 305 295 283 274 267 265 264 260 252 247 241 236 233 231 229 227 226 225 225 226 227 226
328 326 325 323 322 321 319 318 317 316 316 317 316 314 312 312 313 312 311 311 310 305 293 281 274 269 266 262 256 250 243 235 230 228 227 226 226 225 225 226 227 227
328 328 327 325 322 320 317 314 313 312 312 313 313 311 311 312 311 310 310 308 308 306 297 285 278 272 267 265 260 252 244 235 230 227 225 225 225 226 226 226 226 227
332 332 331 327 322 317 313 311 310 309 307 308 309 307 307 309 309 308 307 306 304 303 299 290 283 275 266 262 259 251 242 235 231 228 226 226 228 228 229 230 231 231
337 337 334 328 321 314 309 308 307 306 306 305 304 304 304 306 308 307 304 304 303 302 301 294 286 280 271 262 258 252 242 233 228 225 224 225 227 228 228 232 235 236
341 340 339 340 338 328 317 310 305 303 305 305 302 302 304 306 308 307 304 303 303 302 302 297 288 282 275 266 260 255 245 233 225 221 221 222 223 222 222 224 229 232